Daviess Cnty AP, Washington,, IN

8:36 PM EST on December 05, 2019 (GMT -0500)
Daviess County

Weather History for KDCY - October, 2019

Change the Weather History Date:

Monday, October 28, 2019

  Actual Average (WUND) Record (WUND)
Temperature  
Mean Temperature 48 °F -  
Max Temperature 56 °F - - (-1)
Min Temperature 41 °F - - (-1)
Degree Days  
Heating Degree Days 16    
Moisture  
Dew Point 50 °F    
Average Humidity 98    
Maximum Humidity 100    
Minimum Humidity 89    
Precipitation  
Precipitation 0.00 in - - ()
Sea Level Pressure  
Sea Level Pressure 30.07 in    
Wind  
Wind Speed 3 mph (South)    
Max Wind Speed 8 mph    
Max Gust Speed -    
Visibility 8 miles    
Events Fog    
Averages and records for this station are not official NWS values.
T = Trace of Precipitation, MM = Missing Value Source: NWS Daily Summary

Daily Weather History Graph

Daily Weather History Graph

Search for Another Location

Airport or City:

Astronomy

Oct. 28, 2019 Rise Set
Actual Time 8:10 AM EDT 6:53 PM EDT
Civil Twilight 7:43 AM EDT 7:20 PM EDT
Nautical Twilight 7:12 AM EDT 7:51 PM EDT
Astronomical Twilight 6:41 AM EDT 8:22 PM EDT
Moon 8:32 AM EDT (10/28) 7:38 PM EDT (10/28)
Length of Visible Light 11h 36m
Length of Day
10h 42m
New Moon, 0% of the Moon is Illuminated
Oct 28
New Moon
Nov 4
First Quarter
Nov 12
Full
Nov 19
Last Quarter
Nov 26
New

Hourly Weather History & Observations

Time (EDT) Temp. Windchill Dew Point Humidity Pressure Visibility Wind Dir Wind Speed Gust Speed Precip Events Conditions
12:15 AM 44.8 °F - 44.6 °F 99% 30.05 in 10.0 mi Calm Calm - N/A   Clear
12:35 AM 45.0 °F - 44.6 °F 99% 30.05 in 10.0 mi Calm Calm - N/A   Clear
12:55 AM 44.4 °F - 44.1 °F 99% 30.05 in 10.0 mi Calm Calm - N/A   Clear
1:15 AM 45.0 °F - 44.8 °F 99% 30.05 in 10.0 mi Calm Calm - N/A   Clear
1:35 AM 45.5 °F 44.2 °F 45.5 °F 100% 30.05 in 10.0 mi SSE 3.5 mph - N/A   Clear
1:55 AM 45.3 °F - 45.0 °F 99% 30.05 in 10.0 mi Calm Calm - N/A   Clear
2:15 AM 45.5 °F 44.2 °F 45.1 °F 99% 30.06 in 10.0 mi SE 3.5 mph - N/A   Clear
2:35 AM 44.1 °F 42.5 °F 43.9 °F 99% 30.06 in 10.0 mi SSE 3.5 mph - N/A   Clear
2:55 AM 43.7 °F 41.1 °F 43.7 °F 100% 30.06 in 10.0 mi SSE 4.6 mph - N/A   Clear
3:15 AM 43.9 °F 39.9 °F 43.7 °F 99% 30.06 in 10.0 mi SE 6.9 mph - N/A   Clear
3:35 AM 43.7 °F - 43.3 °F 99% 30.07 in 10.0 mi Calm Calm - N/A   Clear
3:55 AM 45.3 °F - 45.1 °F 99% 30.07 in 10.0 mi Calm Calm - N/A   Clear
4:15 AM 45.1 °F 42.0 °F 45.0 °F 99% 30.06 in 10.0 mi SSE 5.8 mph - N/A   Clear
4:35 AM 43.7 °F 41.1 °F 43.7 °F 100% 30.06 in 10.0 mi SE 4.6 mph - N/A   Clear
4:55 AM 43.0 °F 39.5 °F 42.8 °F 99% 30.06 in 7.0 mi SSE 5.8 mph - N/A   Clear
5:15 AM 43.5 °F 41.9 °F 43.3 °F 99% 30.06 in 7.0 mi SE 3.5 mph - N/A   Clear
5:35 AM 43.3 °F - 43.2 °F 99% 30.06 in 7.0 mi Calm Calm - N/A   Clear
5:55 AM 42.8 °F - 42.6 °F 99% 30.06 in 5.0 mi Calm Calm - N/A   Clear
6:15 AM 41.5 °F - 41.4 °F 99% 30.07 in 3.0 mi Calm Calm - N/A   Clear
6:35 AM 41.4 °F - 41.2 °F 99% 30.07 in 0.8 mi Calm Calm - N/A   Overcast
6:55 AM 44.1 °F 42.5 °F 44.1 °F 100% 30.08 in 4.0 mi South 3.5 mph - N/A   Overcast
7:15 AM 46.0 °F - 45.9 °F 99% 30.08 in 4.0 mi Calm Calm - N/A   Overcast
7:35 AM 47.3 °F - 47.1 °F 99% 30.10 in 0.2 mi Calm Calm - N/A Fog Fog
7:55 AM 47.7 °F - 47.5 °F 99% 30.10 in 0.2 mi West 3.5 mph - N/A Fog Fog
8:15 AM 47.7 °F - 47.5 °F 99% 30.10 in 0.5 mi WSW 6.9 mph - N/A Fog Fog
8:35 AM 48.2 °F - 47.8 °F 99% 30.11 in 0.2 mi SSW 3.5 mph - N/A Fog Fog
8:55 AM 48.6 °F - 48.4 °F 99% 30.11 in 0.5 mi Calm Calm - N/A Fog Fog
9:15 AM 49.1 °F - 48.7 °F 99% 30.12 in 0.5 mi South 3.5 mph - N/A Fog Fog
9:35 AM 49.3 °F - 49.1 °F 99% 30.12 in 0.5 mi South 3.5 mph - N/A Fog Fog
9:55 AM 49.3 °F - 49.1 °F 99% 30.11 in 0.2 mi SSE 3.5 mph - N/A Fog Fog
10:15 AM 50.0 °F - 49.6 °F 99% 30.11 in 0.5 mi South 3.5 mph - N/A Fog Fog
10:35 AM 50.9 °F - 50.5 °F 99% 30.12 in 1.5 mi SSE 4.6 mph - N/A   Overcast
10:55 AM 51.1 °F - 50.9 °F 99% 30.12 in 1.8 mi South 3.5 mph - N/A   Overcast
11:10 AM 51.4 °F - 51.3 °F 99% 30.12 in 2.5 mi South 3.5 mph - N/A   Overcast
11:35 AM 52.0 °F - 51.8 °F 99% 30.11 in 5.0 mi South 5.8 mph - N/A   Overcast
11:55 AM 52.5 °F - 52.2 °F 99% 30.12 in 10.0 mi South 5.8 mph - N/A   Overcast
12:15 PM 52.7 °F - 52.3 °F 99% 30.12 in 7.0 mi South 4.6 mph - N/A   Overcast
12:35 PM 53.2 °F - 53.1 °F 99% 30.11 in 3.0 mi Calm Calm - N/A   Overcast
12:55 PM 53.6 °F - 53.4 °F 99% 30.11 in 7.0 mi Calm Calm - N/A   Overcast
1:15 PM 54.3 °F - 54.0 °F 99% 30.10 in 5.0 mi South 5.8 mph - N/A   Overcast
1:35 PM 54.5 °F - 54.5 °F 100% 30.08 in 7.0 mi South 8.1 mph - N/A   Overcast
1:55 PM 54.5 °F - 54.5 °F 100% 30.08 in 10.0 mi South 8.1 mph - N/A   Overcast
2:15 PM 55.0 °F - 54.9 °F 99% 30.07 in 10.0 mi South 5.8 mph - N/A   Overcast
2:35 PM 55.6 °F - 55.2 °F 99% 30.06 in 10.0 mi South 8.1 mph - N/A   Overcast
2:55 PM 55.8 °F - 55.0 °F 97% 30.05 in 10.0 mi South 6.9 mph - N/A   Overcast
3:15 PM 55.6 °F - 54.3 °F 96% 30.05 in 10.0 mi SW 6.9 mph - N/A   Overcast
3:35 PM 55.8 °F - 54.3 °F 95% 30.05 in 10.0 mi SW 5.8 mph - N/A   Overcast
3:55 PM 55.9 °F - 54.1 °F 94% 30.05 in 10.0 mi SSW 6.9 mph - N/A   Overcast
4:15 PM 56.3 °F - 54.3 °F 93% 30.06 in 10.0 mi SW 6.9 mph - N/A   Overcast
4:35 PM 55.9 °F - 54.1 °F 94% 30.06 in 10.0 mi SSW 6.9 mph - N/A   Overcast
4:55 PM 56.1 °F - 54.0 °F 92% 30.06 in 10.0 mi SW 3.5 mph - N/A   Overcast
5:15 PM 56.3 °F - 53.2 °F 89% 30.06 in 10.0 mi SW 5.8 mph - N/A   Overcast
5:35 PM 56.3 °F - 53.2 °F 89% 30.05 in 10.0 mi SSW 3.5 mph - N/A   Overcast
5:55 PM 56.3 °F - 53.4 °F 90% 30.05 in 10.0 mi South 4.6 mph - N/A   Overcast
6:15 PM 56.1 °F - 54.1 °F 93% 30.05 in 10.0 mi South 3.5 mph - N/A   Overcast
6:35 PM 55.8 °F - 54.1 °F 94% 30.05 in 10.0 mi Calm Calm - N/A   Overcast
6:55 PM 55.6 °F - 54.5 °F 96% 30.06 in 10.0 mi South 3.5 mph - N/A   Overcast
7:15 PM 55.4 °F - 54.7 °F 97% 30.06 in 10.0 mi SSW 3.5 mph - N/A   Overcast
7:35 PM 55.4 °F - 54.3 °F 96% 30.06 in 10.0 mi Calm Calm - N/A   Overcast
7:55 PM 55.0 °F - 54.7 °F 99% 30.06 in 10.0 mi South 3.5 mph - N/A   Overcast
8:15 PM 54.7 °F - 54.5 °F 99% 30.06 in 10.0 mi Calm Calm - N/A   Overcast
8:35 PM 54.7 °F - 54.5 °F 99% 30.06 in 10.0 mi SSE 4.6 mph - N/A   Overcast
8:55 PM 54.5 °F - 54.5 °F 100% 30.06 in 10.0 mi South 4.6 mph - N/A   Overcast
9:15 PM 54.5 °F - 54.5 °F 100% 30.06 in 10.0 mi SSE 3.5 mph - N/A   Overcast
9:35 PM 54.5 °F - 54.5 °F 100% 30.06 in 10.0 mi SSE 3.5 mph - N/A   Overcast
9:55 PM 54.5 °F - 54.1 °F 99% 30.06 in 10.0 mi Calm Calm - N/A   Overcast
10:15 PM 54.5 °F - 54.1 °F 99% 30.06 in 10.0 mi SSE 3.5 mph - N/A   Overcast
10:35 PM 54.5 °F - 53.6 °F 97% 30.06 in 10.0 mi SSE 4.6 mph - N/A   Overcast
10:55 PM 54.5 °F - 53.6 °F 97% 30.06 in 10.0 mi SSE 5.8 mph - N/A   Overcast
11:15 PM 54.5 °F - 53.1 °F 95% 30.05 in 10.0 mi SSE 5.8 mph - N/A   Overcast
11:35 PM 54.5 °F - 53.1 °F 95% 30.05 in 10.0 mi SSE 5.8 mph - N/A   Overcast
11:55 PM 54.7 °F - 52.7 °F 93% 30.05 in 10.0 mi South 4.6 mph - N/A   Overcast